EW8004 Weather Reports


Display with metric or nautical units.
time (UTC)temp
F
wind
direction
speed
MPH
gust
MPH
rain 1hr
in
rain 24hr
in
rain mn
in
humidity
%
barometer
mb
20260505120026 48 109 0.0 0.0 0.00 0.00 0.00 96 1014.1
20260505114526 48 108 0.0 0.0 0.00 0.00 0.00 96 1014.1
20260505113025 47 108 0.0 0.0 0.00 0.00 0.00 95 1014.1
20260505111521 47 108 0.0 0.0 0.00 0.00 0.00 94 1013.8
20260505101515 48 109 0.0 0.0 0.00 0.00 0.00 93 1013.4
20260505100017 48 109 0.0 0.0 0.00 0.00 0.00 93 1013.4
20260505094511 48 108 0.0 0.0 0.00 0.00 0.00 93 1013.4
20260505093110 49 108 0.0 0.0 0.00 0.00 0.00 93 1013.6
20260505091509 49 109 0.0 0.0 0.00 0.00 0.00 92 1013.6
20260505090006 50 108 0.0 0.0 0.00 0.00 0.00 92 1013.6
20260505084503 50 108 0.0 0.0 0.00 0.00 0.00 92 1013.3
20260505083107 50 108 0.0 0.0 0.00 0.00 0.00 92 1013.2
20260505081601 51 108 0.0 0.0 0.00 0.00 0.00 92 1013.1
20260505080055 51 108 0.0 0.0 0.00 0.00 0.00 91 1012.8
20260505074553 52 108 0.0 0.0 0.00 0.00 0.00 91 1012.7
20260505073053 53 108 0.0 0.0 0.00 0.00 0.00 91 1012.6
20260505071552 53 108 0.0 0.0 0.00 0.00 0.00 90 1012.7
20260505070051 53 108 0.0 0.0 0.00 0.00 0.00 91 1012.8
20260505064550 53 108 0.0 0.0 0.00 0.00 0.00 92 1012.7
20260505063049 53 108 0.0 0.0 0.00 0.00 0.00 93 1012.6
20260505061550 53 108 0.0 0.0 0.00 0.00 0.00 93 1012.6
20260505060048 53 109 0.0 0.0 0.00 0.00 0.00 93 1012.6
20260505054553 53 109 0.0 0.0 0.00 0.00 0.00 94 1012.6
20260505053043 52 109 0.0 0.0 0.00 0.00 0.00 94 1012.5
20260505051542 52 108 0.0 0.0 0.00 0.00 0.00 93 1012.2
20260505041534 53 108 0.0 0.0 0.00 0.00 0.00 92 1012.2
20260505040031 53 108 0.0 0.0 0.00 0.00 0.00 91 1012.2
20260505034529 53 108 0.0 0.0 0.00 0.00 0.00 91 1012.2
20260505033036 53 108 0.0 0.0 0.00 0.00 0.00 91 1012.3
20260505031534 54 108 0.0 0.0 0.00 0.00 0.00 90 1012.4
20260505030028 54 108 0.0 0.0 0.00 0.00 0.00 88 1012.4
20260505024543 55 108 0.0 0.0 0.00 0.00 0.00 87 1012.5
20260505023036 56 108 0.0 0.0 0.00 0.00 0.00 86 1012.7
20260505021527 57 108 0.0 0.0 0.00 0.00 0.00 84 1012.6
20260505020025 58 108 0.0 0.0 0.00 0.00 0.00 83 1012.4
20260505014534 59 108 0.0 0.0 0.00 0.00 0.00 81 1012.4
20260505013025 60 108 0.0 0.0 0.00 0.00 0.00 79 1012.3
20260505011524 61 108 0.0 0.0 0.00 0.00 0.00 77 1012.1
20260505010023 63 108 0.0 0.0 0.00 0.00 0.00 74 1012.0
20260505004524 65 108 0.0 0.0 0.00 0.00 0.00 71 1011.9
20260505003022 66 108 0.0 0.0 0.00 0.00 0.00 71 1011.8
20260505001522 67 108 0.0 0.0 0.00 0.00 0.00 69 1011.7
20260505000022 68 108 0.0 0.0 0.00 0.00 0.00 70 1011.7
20260504234521 69 108 0.0 0.0 0.00 0.00 0.00 67 1011.6
20260504233019 69 108 0.0 0.0 0.00 0.00 0.00 65 1011.5
20260504231518 70 108 0.0 0.0 0.00 0.00 0.00 62 1011.6
20260504230017 70 108 0.0 0.0 0.00 0.00 0.00 61 1011.8
20260504224516 70 186 0.0 0.0 0.00 0.00 0.00 60 1011.7
20260504223015 71 141 0.0 0.0 0.00 0.00 0.00 60 1011.7
20260504221516 71 148 0.0 0.0 0.00 0.00 0.00 61 1011.8
20260504220013 71 26 0.0 0.0 0.00 0.00 0.00 59 1011.9
20260504214512 71 25 0.0 0.0 0.00 0.00 0.00 58 1011.8
20260504213018 72 22 0.0 0.0 0.00 0.00 0.00 57 1011.9
20260504211515 72 333 0.0 0.0 0.00 0.00 0.00 58 1011.9
20260504210009 72 119 0.0 0.0 0.00 0.00 0.00 61 1012.0
20260504204515 72 186 0.0 0.0 0.00 0.00 0.00 60 1012.3
20260504203007 73 190 0.0 0.0 0.00 0.00 0.00 60 1012.3
20260504201505 74 236 0.0 0.0 0.00 0.00 0.00 59 1012.5
20260504200004 75 131 0.0 0.0 0.00 0.00 0.00 59 1012.7
20260504194502 75 161 0.0 0.0 0.00 0.00 0.00 58 1012.8
20260504193002 75 194 0.0 0.0 0.00 0.00 0.00 54 1013.1
20260504191604 75 170 0.0 0.0 0.00 0.00 0.00 56 1013.4
20260504190058 75 166 0.0 0.0 0.00 0.00 0.00 53 1013.7
20260504184559 75 229 0.0 0.0 0.00 0.00 0.00 56 1013.9
20260504183058 75 182 0.0 0.0 0.00 0.00 0.00 55 1014.2
20260504181551 74 186 0.0 0.0 0.00 0.00 0.00 52 1014.4
20260504180051 74 139 0.0 0.0 0.00 0.00 0.00 52 1014.5
20260504174546 73 227 0.0 0.0 0.00 0.00 0.00 54 1014.7
20260504173055 73 178 0.0 0.0 0.00 0.00 0.00 52 1015.0
20260504171540 72 202 0.0 0.0 0.00 0.00 0.00 52 1015.2